Bloomington, IL

8:29 PM CDT on August 23, 2016 (GMT -0500)
Central Ill Regional

Weather History for KBMI - April, 2014

Change the Weather History Date:

Saturday, April 19, 2014

  Actual Average Record
Temperature  
Mean Temperature 50 °F -  
Max Temperature 70 °F 0 °F 82 °F (2002)
Min Temperature 31 °F - 31 °F (2014)
Degree Days  
Heating Degree Days 14    
Moisture  
Dew Point 31 °F    
Average Humidity 50    
Maximum Humidity 82    
Minimum Humidity 24    
Precipitation  
Precipitation 0.00 in - - ()
Sea Level Pressure  
Sea Level Pressure 30.29 in    
Wind  
Wind Speed 11 mph (ESE)    
Max Wind Speed 14 mph    
Max Gust Speed 23 mph    
Visibility 10 miles    
Events      
Averages and records for this station are not official NWS values.
T = Trace of Precipitation, MM = Missing Value Source: NWS Daily Summary

Daily Weather History Graph

Daily Weather History Graph

Search for Another Location

Airport or City:

Trip Planner

Search our weather history database for the weather conditions in past years. The results will help you decide how hot, cold, wet, or windy it might be!

Date:

Astronomy

Apr. 19, 2014 Rise Set
Actual Time 6:11 AM CDT 7:38 PM CDT
Civil Twilight 5:42 AM CDT 8:07 PM CDT
Nautical Twilight 5:08 AM CDT 8:42 PM CDT
Astronomical Twilight 4:32 AM CDT 9:18 PM CDT
Moon No Moon Rise 9:29 AM CDT (4/19)
Length of Visible Light 14h 24m
Length of Day
13h 27m
Waning Gibbous, 78% of the Moon is Illuminated
Apr 19
Waning Gibbous
Apr 22
Last Quarter
Apr 29
New
May 6
First Quarter
May 14
Full

Hourly Weather History & Observations

Time (CDT) Temp. Windchill Dew Point Humidity Pressure Visibility Wind Dir Wind Speed Gust Speed Precip Events Conditions
12:56 AM 37.9 °F 29.6 °F 30.0 °F 73% 30.34 in 10.0 mi ENE 13.8 mph - N/A   Clear
1:56 AM 36.0 °F 28.0 °F 28.0 °F 73% 30.35 in 10.0 mi ENE 11.5 mph - N/A   Clear
2:56 AM 34.0 °F 26.0 °F 27.1 °F 76% 30.34 in 10.0 mi ENE 10.4 mph - N/A   Clear
3:56 AM 32.9 °F 24.7 °F 26.1 °F 76% 30.32 in 10.0 mi ENE 10.4 mph - N/A   Clear
4:56 AM 32.0 °F 24.2 °F 26.1 °F 79% 30.33 in 10.0 mi ENE 9.2 mph - N/A   Clear
5:56 AM 31.1 °F 23.1 °F 25.2 °F 79% 30.34 in 10.0 mi ENE 9.2 mph - N/A   Clear
6:56 AM 32.0 °F 24.2 °F 27.1 °F 82% 30.35 in 10.0 mi East 9.2 mph - N/A   Clear
7:56 AM 39.9 °F 33.9 °F 30.0 °F 68% 30.36 in 10.0 mi East 9.2 mph - N/A   Clear
8:56 AM 50.0 °F - 32.0 °F 50% 30.35 in 10.0 mi ESE 10.4 mph - N/A   Clear
9:56 AM 55.9 °F - 29.1 °F 36% 30.34 in 10.0 mi SE 11.5 mph - N/A   Clear
10:56 AM 61.0 °F - 31.1 °F 32% 30.34 in 10.0 mi SE 13.8 mph - N/A   Clear
12:56 PM 66.9 °F - 32.0 °F 27% 30.31 in 10.0 mi SE 10.4 mph 17.3 mph N/A   Clear
1:56 PM 68.9 °F - 31.1 °F 25% 30.29 in 10.0 mi East 8.1 mph - N/A   Clear
2:56 PM 70.0 °F - 32.0 °F 25% 30.26 in 10.0 mi SE 11.5 mph 23.0 mph N/A   Clear
3:56 PM 70.9 °F - 32.0 °F 24% 30.25 in 10.0 mi SE 5.8 mph 17.3 mph N/A   Clear
4:56 PM 70.0 °F - 31.1 °F 24% 30.24 in 10.0 mi SE 8.1 mph - N/A   Clear
5:56 PM 68.0 °F - 32.9 °F 27% 30.22 in 10.0 mi SSE 11.5 mph - N/A   Clear
6:56 PM 64.9 °F - 34.0 °F 32% 30.22 in 10.0 mi SE 8.1 mph - N/A   Clear
7:56 PM 61.0 °F - 34.0 °F 36% 30.22 in 10.0 mi SE 6.9 mph - N/A   Clear
8:56 PM 55.9 °F - 36.0 °F 47% 30.23 in 10.0 mi SE 9.2 mph - N/A   Clear
9:56 PM 54.9 °F - 36.0 °F 49% 30.24 in 10.0 mi SE 6.9 mph - N/A   Clear
10:56 PM 54.9 °F - 36.9 °F 51% 30.23 in 10.0 mi SE 10.4 mph - N/A   Clear
11:56 PM 50.0 °F - 36.9 °F 61% 30.23 in 10.0 mi SE 10.4 mph - N/A   Clear